Vertical_Velocity
-2 1 -1 -1 0 0 -0 1 1 -1 -2 2 1 0 -1 -3 -2 1 -0 -3 -1 -0 -5 -1 2 -0 -1 1 0 -1 0 1 -0 2 2 2 1 6 2 3 3 4 -1 -2 -5
0 -1 2 1 2 -1 -1 -0 -0 0 -0 -0 0 -0 -0 -1 -1 -4 2 -1 -3 2 -6 -4 -1 -0 1 1 -4 -4 -2 -0 -3 5 3 4 2 3 -1 2 3 2 2 2 -4
-2 -1 1 1 0 -2 1 -0 -0 -1 -1 0 1 -0 1 -1 -1 -2 2 1 -3 2 -3 0 -4 -1 -5 0 -4 2 0 3 -1 3 -1 -19 -1 -1 6 3 5 -1 -0 3 -5
1 1 -2 -0 1 -0 1 -2 -1 2 -2 1 -1 0 2 2 -3 0 1 -1 -3 2 -3 -1 -5 1 -5 -1 -0 -4 -0 -4 -3 3 1 3 6 5 5 1 -0 -2 2 5 1
0 0 2 1 -0 -1 1 -1 -3 -0 -2 0 -1 1 0 1 -1 2 1 -1 -2 1 -5 -2 -6 1 -5 1 4 3 5 0 -2 9 1 3 3 -1 -0 -0 -3 2 -2 4 2
-1 2 0 2 1 -0 -1 -1 -1 -0 -2 -1 -1 -0 1 0 1 1 3 -3 -1 3 -1 -1 -4 -1 -6 -0 3 -1 2 2 1 -13 4 -2 2 1 -3 -0 1 -4 4 -0 2
1 -1 0 0 2 3 2 -2 -2 -1 -2 -1 -1 -0 0 -0 2 2 0 -0 -1 -0 0 -1 -4 -0 -6 2 6 2 2 8 6 -4 1 1 1 1 -2 -0 -1 1 3 2 -1
-5 -0 1 0 1 1 4 1 -2 -3 -2 -2 -0 -1 5 1 0 1 -2 3 -1 0 0 0 -2 -1 -6 1 3 4 -3 -1 0 2 1 0 -0 -1 -0 0 1 -4 1 -2 -9
-0 3 -6 1 -2 1 3 1 -0 -3 -1 -1 -0 -3 4 2 -1 -2 -1 -0 -1 0 1 1 -2 2 -6 0 3 -1 -2 -1 -2 -0 -1 -1 -2 -1 1 -5 2 3 -2 -3 -3
1 -2 5 -5 3 -3 2 0 -1 1 -4 1 -4 -3 1 2 -1 -1 1 -1 -1 2 2 0 -3 -4 -3 0 -0 -2 -4 3 1 2 -0 -0 1 1 -1 4 -3 2 1 4 3
-2 2 -1 2 2 -4 2 2 -0 1 -0 -4 -5 0 2 4 3 5 1 0 1 2 1 -2 -1 -6 1 -1 2 3 -4 -3 -2 -4 -2 -0 3 4 -0 1 -1 -1 -4 -3 -5
3 -3 1 2 -7 -2 1 -1 2 -1 -8 1 -5 -5 5 4 1 4 0 -3 -0 1 0 -1 -0 1 2 7 5 -6 1 -0 1 -0 -4 -9 6 -1 -4 4 5 2 1 -2 4
6 1 3 4 -5 -7 4 3 -3 4 -2 0 -0 -8 8 -0 -1 3 -0 -2 2 2 2 -3 -0 -1 -1 6 3 3 -4 -1 2 2 -2 -0 -1 -3 -2 -1 -2 -2 1 -4 -3
4 2 2 1 3 -3 1 -3 -2 3 5 -26 -4 -19 -13 6 -11 8 3 3 0 1 4 -2 -0 -1 0 1 4 3 -0 -1 1 2 0 -1 -2 -5 -1 2 -5 1 -4 -0 -2
-1 7 0 2 9 1 -2 3 -2 0 4 1 3 -10 -3 3 3 -5 1 7 -2 -2 -1 -3 -1 -6 -4 -1 2 -1 2 2 -1 0 1 0 -1 -3 -5 -4 -1 -3 1 -1 -1
-4 5 1 -2 -5 6 -4 6 -5 8 -15 5 0 -3 8 1 6 8 -1 6 3 5 2 4 1 -5 -5 2 6 -3 2 2 1 0 1 -1 -0 -5 -3 -2 0 -1 -4 6 3
1 7 -1 2 -1 4 -3 1 1 4 3 -0 0 -9 13 0 4 5 -5 -5 -7 4 -2 3 -3 -1 2 -1 2 4 4 -0 2 1 -2 -0 0 -10 -3 -4 -5 -2 -2 -3 3
3 4 2 2 5 11 -1 4 9 1 -4 1 7 4 1 6 6 -0 3 -1 2 4 3 -1 1 -2 2 -5 -1 1 5 -5 -2 -1 0 0 -3 -1 -0 -3 -1 -6 -3 -1 -3
15 -1 -6 9 8 9 2 4 -8 -15 1 7 9 6 7 6 0 2 3 -5 -1 -11 -2 -1 -2 -1 -1 2 4 -2 1 0 -1 -0 -0 -0 -2 -5 2 2 -0 -3 -5 -1 -1
-3 9 4 17 14 9 8 -16 -7 -9 -3 -1 0 9 -0 -3 5 9 -2 -8 -5 -5 4 -7 3 4 1 5 0 2 3 -1 -2 -1 -0 -1 -2 -6 3 3 3 3 -4 -3 -3
1 4 13 26 21 16 -47 -8 -5 -1 -6 3 2 -0 -1 0 -4 -2 -2 2 2 2 3 2 5 2 4 -3 -1 -0 -3 -3 1 -0 -2 -1 -6 -4 -6 -3 3 1 1 -2 -2
9 -19 14 30 3 -13 -27 5 7 -5 2 1 -1 2 -0 5 -2 2 -6 -3 -0 -3 -7 -3 3 -3 -5 -2 3 4 -3 2 5 -3 -0 0 -20 -1 -1 5 2 3 2 2 -0
4 9 2 22 -13 -50 28 -6 -6 -5 5 2 2 -0 1 2 5 5 -1 3 -6 -1 -12 -9 -5 1 2 3 2 -2 -2 -0 -1 4 -5 2 -11 -4 -1 -3 -2 -4 3 -3 2
22 13 15 -4 9 50 1 -9 -2 -4 -4 6 1 1 3 3 1 0 -7 5 1 7 14 13 3 -8 -16 -16 1 -2 -1 1 3 4 -4 -14 -6 1 -3 -8 -3 -1 1 1 2
17 10 -50 -25 -16 -28 23 26 4 -28 0 4 -11 -2 0 2 2 -2 -1 2 5 -0 2 8 1 1 1 1 2 1 -2 1 -3 -1 2 -10 -2 -3 -5 -9 -8 -1 1 0 -5
14 -27 1 -7 21 34 2 -10 1 -3 -3 -1 -7 6 3 -7 -3 2 5 10 10 6 5 -3 -10 -1 -1 3 0 -5 8 -1 2 -1 -2 -2 -12 5 2 -2 -6 -0 -2 3 4
-13 -3 6 -16 1 18 -29 9 8 1 -0 10 5 6 -2 -28 22 13 8 6 4 4 7 13 0 -1 -8 1 -1 13 -13 -1 1 -3 2 -0 -3 6 0 0 -1 -2 -1 1 2
Height
3146 3147 3147 3148 3148 3148 3147 3147 3147 3147 3146 3145 3143 3142 3139 3137 3136 3134 3133 3133 3131 3129 3128 3129 3129 3129 3129 3128 3129 3129 3130 3129 3128 3129 3129 3127 3126 3124 3124 3124 3125 3124 3124 3125 3125
3140 3141 3142 3143 3143 3144 3144 3143 3144 3143 3143 3142 3140 3139 3137 3135 3134 3132 3132 3130 3129 3128 3127 3129 3128 3128 3129 3130 3130 3130 3130 3129 3129 3128 3127 3125 3123 3123 3123 3123 3123 3123 3122 3122 3122
3136 3136 3137 3137 3138 3139 3140 3140 3140 3140 3140 3139 3138 3136 3134 3133 3132 3130 3130 3128 3128 3127 3127 3129 3128 3129 3130 3130 3130 3129 3129 3128 3128 3127 3126 3125 3122 3122 3121 3120 3120 3119 3119 3120 3121
3131 3132 3133 3133 3133 3134 3135 3135 3136 3135 3136 3135 3135 3133 3131 3131 3132 3128 3127 3127 3127 3127 3126 3128 3129 3129 3130 3130 3129 3129 3128 3127 3126 3125 3124 3125 3122 3121 3120 3118 3117 3116 3116 3115 3117
3124 3126 3127 3128 3128 3129 3129 3130 3131 3132 3132 3132 3132 3130 3129 3128 3127 3126 3126 3126 3126 3126 3126 3127 3128 3129 3130 3129 3129 3127 3126 3126 3125 3125 3125 3125 3123 3122 3120 3118 3118 3116 3114 3114 3115
3117 3119 3121 3122 3123 3124 3124 3125 3126 3126 3127 3128 3128 3128 3126 3127 3124 3124 3124 3124 3124 3124 3126 3127 3128 3128 3130 3129 3128 3128 3126 3126 3126 3126 3125 3124 3123 3122 3121 3119 3119 3117 3115 3116 3116
3111 3112 3114 3115 3116 3118 3119 3119 3120 3121 3123 3123 3123 3124 3123 3124 3122 3122 3122 3123 3123 3124 3125 3126 3127 3128 3129 3128 3127 3127 3127 3127 3127 3127 3125 3125 3125 3123 3122 3121 3122 3121 3119 3117 3118
3108 3107 3108 3108 3110 3111 3113 3113 3114 3116 3118 3119 3119 3119 3119 3119 3119 3120 3121 3121 3122 3123 3125 3125 3126 3126 3127 3127 3126 3126 3127 3127 3127 3126 3126 3127 3126 3124 3123 3123 3124 3124 3122 3123 3120
3102 3104 3103 3103 3103 3104 3106 3108 3109 3111 3113 3114 3115 3116 3116 3116 3117 3118 3119 3121 3122 3123 3123 3124 3125 3125 3126 3125 3126 3126 3126 3126 3126 3126 3126 3127 3127 3126 3125 3123 3125 3126 3126 3126 3125
3097 3098 3099 3099 3099 3099 3100 3102 3104 3106 3108 3109 3110 3114 3114 3113 3113 3115 3117 3119 3120 3121 3123 3123 3122 3123 3123 3124 3124 3124 3126 3125 3126 3127 3126 3126 3126 3126 3127 3125 3125 3126 3127 3128 3129
3090 3092 3095 3094 3095 3095 3097 3099 3103 3103 3100 3105 3105 3106 3108 3109 3111 3113 3115 3117 3119 3120 3121 3120 3121 3120 3121 3122 3123 3123 3125 3125 3126 3126 3126 3125 3124 3125 3127 3128 3126 3127 3128 3129 3131
3082 3085 3088 3090 3090 3092 3093 3094 3095 3096 3094 3097 3098 3098 3103 3105 3107 3109 3112 3115 3116 3118 3119 3120 3119 3119 3121 3121 3121 3122 3124 3124 3124 3124 3124 3123 3123 3124 3125 3128 3129 3129 3129 3130 3131
3075 3077 3080 3083 3085 3089 3090 3089 3091 3089 3087 3089 3090 3092 3097 3100 3102 3104 3108 3111 3114 3115 3116 3117 3118 3118 3119 3120 3121 3120 3122 3122 3122 3122 3121 3120 3121 3122 3124 3126 3129 3130 3130 3131 3132
3067 3071 3074 3076 3082 3084 3086 3087 3088 3086 3083 3080 3082 3086 3088 3092 3096 3101 3104 3109 3111 3113 3114 3115 3115 3117 3118 3118 3120 3120 3120 3120 3120 3120 3119 3119 3121 3120 3122 3123 3125 3127 3129 3130 3132
3055 3063 3067 3069 3075 3078 3083 3084 3085 3087 3084 3073 3071 3075 3079 3085 3089 3094 3100 3104 3107 3109 3112 3113 3112 3114 3115 3116 3117 3119 3118 3118 3118 3118 3119 3119 3120 3119 3120 3120 3121 3122 3125 3127 3129
3044 3051 3057 3063 3070 3074 3075 3081 3083 3086 3075 3068 3066 3069 3073 3077 3085 3089 3094 3100 3104 3106 3108 3109 3110 3111 3112 3114 3115 3116 3116 3116 3116 3117 3118 3117 3119 3117 3117 3117 3118 3119 3119 3122 3125
3032 3041 3047 3055 3065 3066 3071 3076 3080 3074 3068 3066 3063 3067 3070 3071 3080 3083 3087 3092 3097 3101 3103 3105 3106 3107 3109 3111 3112 3113 3114 3114 3115 3115 3115 3115 3116 3115 3115 3113 3113 3114 3114 3115 3119
3018 3028 3035 3045 3057 3059 3065 3072 3066 3060 3062 3061 3061 3065 3067 3069 3075 3079 3083 3088 3093 3097 3100 3102 3104 3103 3106 3108 3111 3110 3111 3111 3113 3113 3112 3113 3112 3112 3112 3110 3109 3109 3110 3110 3111
3000 3012 3022 3033 3046 3051 3056 3057 3051 3054 3057 3058 3060 3062 3064 3066 3071 3075 3078 3082 3088 3093 3097 3098 3100 3101 3104 3106 3108 3108 3109 3109 3109 3111 3111 3110 3109 3109 3109 3108 3107 3106 3106 3106 3106
2987 2995 3007 3024 3036 3041 3046 3037 3041 3048 3053 3055 3057 3060 3059 3063 3068 3071 3074 3077 3082 3089 3094 3097 3099 3099 3100 3104 3105 3106 3108 3108 3108 3110 3110 3107 3107 3106 3107 3107 3106 3105 3104 3104 3104
2980 2985 2990 3011 3022 3028 3024 3021 3033 3043 3049 3053 3052 3056 3057 3060 3064 3066 3069 3074 3078 3084 3089 3093 3097 3099 3098 3100 3102 3103 3103 3105 3106 3106 3104 3106 3104 3104 3104 3105 3104 3104 3104 3104 3103
2969 2975 2979 2995 3005 3009 3006 3013 3026 3033 3043 3046 3048 3051 3054 3058 3059 3063 3065 3070 3074 3079 3083 3089 3092 3093 3094 3096 3098 3098 3099 3101 3101 3102 3101 3101 3099 3100 3100 3101 3101 3102 3101 3101 3101
2955 2965 2975 2985 2985 2995 2998 3007 3017 3028 3034 3039 3044 3047 3050 3054 3057 3059 3062 3068 3072 3074 3078 3084 3086 3090 3091 3093 3092 3093 3094 3094 3096 3096 3096 3098 3097 3096 3097 3098 3098 3098 3098 3098 3098
2949 2953 2968 2975 2978 2984 2988 2995 3006 3016 3026 3033 3038 3043 3047 3050 3052 3055 3058 3063 3067 3072 3076 3078 3081 3082 3084 3086 3089 3089 3089 3090 3091 3092 3091 3090 3090 3093 3093 3094 3093 3093 3093 3093 3093
2933 2935 2949 2952 2960 2970 2979 2985 2993 3004 3015 3026 3030 3036 3042 3046 3048 3051 3055 3058 3062 3066 3070 3073 3074 3077 3079 3082 3083 3084 3085 3085 3086 3087 3086 3086 3085 3087 3088 3089 3089 3088 3088 3088 3088
2922 2927 2942 2948 2957 2964 2971 2972 2980 2996 3007 3012 3020 3029 3037 3041 3046 3048 3051 3054 3057 3061 3064 3067 3069 3071 3074 3075 3078 3077 3079 3080 3081 3081 3080 3080 3077 3082 3082 3082 3083 3083 3082 3083 3083
2909 2921 2933 2938 2947 2956 2952 2966 2976 2989 2999 3009 3017 3024 3029 3037 3043 3045 3046 3049 3052 3054 3057 3060 3062 3066 3068 3070 3072 3069 3072 3075 3076 3076 3076 3073 3073 3075 3075 3075 3076 3077 3077 3078 3078